Weather in Pedernales

Dominican Republic     18°02′08″N   71°44′38″W
temp.,
°C
wind,
m/s
gust,
m/s
humid.,
%
clouds,
%
prec.,
mm/h
press.,
hPa
HPBL,
m
21 january, fri
fri2123:00+25ene33610 0.0 1016150
02:00+24ene11650 0.0 1016269
05:00+24ne22641 0.0 1014166
08:00+24ene22640 0.0 1016204
11:00+27wsw12602 0.0 1018682
14:00+28wnw43563 0.0 1015687
17:00+29nw33560 0.0 1013442
20:00+25ese46690 0.0 1015336
22 january, sat
sat2223:00+25ene23650 0.0 1016205
02:00+24ene22640 0.0 1015160
05:00+24ene21710 0.0 1015328
08:00+24ne21680 0.0 1017214
11:00+26ssw11624 0.0 1018546
14:00+28wsw326112 0.0 1015662
17:00+27nnw33635 0.0 1013585
20:00+24e34650 0.0 1015231
23 january, sun
sun2323:00+24ene11520 0.0 1016134
02:00+24nne22500 0.0 1015193
05:00+24nne32540 0.0 1014191
08:00+24nne32510 0.0 1015165
11:00+26wsw21570 0.0 1016456
14:00+25wsw42640 0.0 1014521
17:00+26w32630 0.0 1012506
20:00+24nne22710 0.0 1014217
24 january, mon
mon2423:00+24ne11670 0.0 1014166
02:00+24nne11650 0.1 1013174
05:00+24ene11640 0.0 1012188
08:00+24ene22630 0.0 1014170
11:00+26wsw21590 0.0 1015506
14:00+26sw336311 0.0 1013749
17:00+27wsw11679 0.4 1012706
20:00+24e34750 0.4 1014321
25 january, tue
tue2523:00+24ese22730 0.0 1014189
02:00+24ene11722 0.0 1014206
05:00+23ene22726 0.0 1013197
08:00+23e22735 0.0 1015236
11:00+27s22550 0.0 1017576
14:00+28w32540 0.0 1014778
17:00+28nw32541 0.0 1013620
20:00+25e23600 0.0 1015243